Total_Precipitation_Accumulation
0.25 0.51 0.97 1.23 1.65 2.08 1.84 1.46 0.93 0.68 0.67 0.72 0.64 0.62 0.79 0.99 1.41 2.54 2.70 2.50 1.70 1.61 1.94 2.05 1.99 1.72 1.60 1.60 1.73 1.66 1.60 1.65 1.79 1.81 1.86 1.95 2.09 2.09 2.08 2.17 2.45 2.74 2.95 3.06 3.07 3.03 3.01 2.95 2.90
0.44 0.80 1.00 1.19 1.82 2.10 1.78 1.35 0.83 0.68 0.57 0.59 0.63 0.56 0.76 0.91 0.98 1.60 2.14 1.99 1.29 1.18 1.46 1.56 1.69 1.60 1.50 1.37 1.47 1.55 1.46 1.51 1.67 1.94 2.15 2.24 2.39 2.37 2.38 2.47 2.61 2.81 2.82 2.92 2.95 2.90 2.77 2.76 2.73
0.48 0.73 0.96 1.22 1.44 1.49 1.26 0.93 0.56 0.48 0.41 0.43 0.55 0.49 0.73 1.19 1.13 1.45 1.69 1.48 1.16 1.08 1.20 1.43 1.39 1.30 1.37 1.34 1.42 1.54 1.57 1.58 1.60 1.87 2.18 2.42 2.62 2.66 2.73 2.83 2.93 2.99 2.80 2.68 2.74 2.77 2.54 2.56 2.57
0.63 0.81 0.80 0.81 0.84 0.79 0.63 0.57 0.41 0.39 0.38 0.36 0.45 0.63 1.02 1.12 1.06 1.25 1.26 1.14 0.92 0.92 0.98 1.13 1.32 1.29 1.33 1.35 1.36 1.37 1.49 1.65 1.78 1.99 2.27 2.50 2.69 2.85 3.03 3.02 3.06 3.02 2.79 2.72 2.69 2.64 2.50 2.55 2.62
0.76 0.82 0.73 0.52 0.47 0.58 0.51 0.43 0.35 0.38 0.35 0.39 0.49 0.88 1.47 1.40 1.00 0.98 1.03 0.95 0.81 0.77 0.92 1.06 1.25 1.31 1.33 1.28 1.32 1.35 1.42 1.69 1.90 1.97 2.08 2.26 2.45 2.80 2.93 2.91 2.91 2.77 2.66 2.60 2.63 2.64 2.52 2.49 2.59
0.59 0.66 0.57 0.35 0.34 0.44 0.42 0.34 0.33 0.30 0.32 0.44 0.61 0.94 1.52 1.52 1.24 1.17 1.18 1.03 0.97 0.80 0.78 0.99 1.20 1.29 1.29 1.24 1.29 1.37 1.56 1.78 1.96 1.94 1.95 2.05 2.28 2.54 2.57 2.55 2.54 2.46 2.52 2.56 2.61 2.61 2.45 2.35 2.61
0.55 0.50 0.34 0.23 0.25 0.34 0.34 0.30 0.32 0.29 0.36 0.54 0.72 1.09 1.49 1.70 1.48 1.28 1.38 1.46 1.24 1.00 0.91 0.98 1.05 1.08 1.17 1.30 1.37 1.60 1.82 1.93 1.96 1.90 1.92 2.09 2.23 2.28 2.21 2.25 2.28 2.29 2.34 2.42 2.48 2.40 2.26 2.26 2.46
0.29 0.30 0.23 0.16 0.17 0.27 0.25 0.24 0.24 0.29 0.41 0.49 0.67 1.14 1.55 1.51 1.45 1.42 1.56 1.72 1.65 1.31 1.21 1.10 1.11 1.12 1.08 1.22 1.50 1.74 1.88 2.01 2.06 2.06 2.14 2.30 2.37 2.28 2.32 2.25 2.28 2.33 2.44 2.53 2.65 2.60 2.42 2.36 2.38
0.19 0.20 0.16 0.13 0.12 0.18 0.16 0.20 0.25 0.22 0.26 0.43 0.65 0.98 1.11 1.06 1.19 1.40 1.61 1.83 2.03 1.80 1.54 1.40 1.23 1.25 1.36 1.32 1.41 1.82 2.03 2.15 2.20 2.43 2.64 2.77 2.69 2.48 2.63 2.48 2.72 2.73 2.76 2.82 2.99 2.95 2.69 2.51 2.42
0.14 0.12 0.09 0.06 0.06 0.07 0.11 0.17 0.23 0.21 0.40 0.67 0.81 0.94 0.89 1.04 1.15 1.41 1.62 1.77 1.92 2.08 1.69 1.58 1.40 1.35 1.42 1.53 1.86 2.16 2.05 2.21 2.47 2.80 2.97 3.19 3.12 3.04 2.63 2.91 3.26 3.48 3.73 3.67 3.62 3.47 3.11 2.58 2.39
0.11 0.08 0.05 0.04 0.03 0.04 0.10 0.11 0.18 0.23 0.57 1.03 1.18 1.21 1.15 1.11 1.25 1.53 1.83 1.94 1.84 1.94 1.76 1.72 1.74 1.80 1.67 1.79 2.04 2.29 2.34 2.52 2.68 2.79 2.99 3.20 2.94 2.87 2.96 3.29 3.62 3.87 4.03 3.91 3.93 3.91 3.36 2.94 2.83
0.06 0.04 0.04 0.03 0.03 0.04 0.08 0.10 0.15 0.25 0.56 0.83 1.11 1.10 1.26 1.24 1.36 1.63 2.01 2.25 2.27 2.43 2.22 2.10 2.15 2.16 2.12 2.07 2.21 2.32 2.37 2.51 2.66 2.83 2.83 2.97 3.16 3.23 3.37 3.75 3.71 3.83 3.96 4.32 4.00 4.14 3.80 3.36 3.09
0.04 0.03 0.04 0.04 0.04 0.04 0.09 0.17 0.18 0.29 0.40 0.60 0.86 0.89 0.97 1.29 1.69 2.11 2.52 2.57 2.74 3.00 3.03 2.79 2.52 2.39 2.45 2.62 2.58 2.40 2.54 2.69 2.79 3.00 2.97 2.97 3.29 3.48 3.58 3.70 3.86 3.56 3.60 4.05 4.19 3.95 4.08 4.04 3.75
0.04 0.04 0.04 0.05 0.05 0.07 0.11 0.24 0.30 0.41 0.48 0.54 0.80 1.05 1.11 1.48 1.84 2.44 3.13 3.09 2.92 3.18 3.31 3.06 2.88 2.77 2.84 3.13 3.20 3.02 2.85 3.10 3.12 3.10 3.04 3.13 3.40 3.78 3.98 3.91 4.00 3.74 3.50 3.69 3.91 3.92 4.57 4.43 4.27
0.05 0.07 0.08 0.09 0.11 0.14 0.21 0.43 0.56 0.55 0.51 0.60 0.90 1.23 1.50 1.66 2.00 2.38 2.82 3.21 3.39 3.48 3.37 3.32 3.29 3.23 3.39 3.54 3.48 3.26 3.19 3.09 3.16 3.23 3.30 3.30 3.31 3.74 3.99 4.18 4.14 3.86 3.60 3.81 3.96 4.18 4.50 4.28 4.14
0.06 0.11 0.16 0.16 0.16 0.17 0.28 0.70 0.68 0.56 0.55 0.86 1.06 1.40 1.74 1.82 2.09 2.52 2.93 3.50 3.78 3.78 3.74 3.75 3.58 3.68 3.88 3.98 3.86 3.69 3.56 3.39 3.18 3.12 3.33 3.41 3.52 3.76 3.99 3.92 3.82 3.91 3.81 4.02 4.31 4.46 4.55 4.47 4.28
0.13 0.16 0.21 0.20 0.20 0.18 0.25 0.51 0.64 0.59 0.77 1.05 1.28 1.59 1.90 2.18 2.65 3.16 3.45 3.58 3.94 4.26 4.41 4.46 4.40 4.30 4.29 4.30 4.20 4.24 4.22 4.00 3.65 3.49 3.55 3.63 3.55 3.56 3.78 3.77 3.87 3.93 3.92 3.97 3.66 4.27 4.32 4.45 4.32
0.16 0.15 0.19 0.23 0.19 0.21 0.30 0.45 0.57 0.64 0.86 1.28 1.65 1.89 2.16 2.57 3.09 3.48 3.75 4.11 4.25 4.51 5.03 5.04 4.91 4.93 5.00 4.98 4.68 4.70 4.49 4.22 4.06 3.99 4.11 3.89 3.68 3.51 3.72 3.74 3.88 3.88 3.97 4.01 3.97 4.29 4.27 4.13 4.10
0.14 0.16 0.20 0.24 0.20 0.23 0.41 0.60 0.64 0.81 1.10 1.41 1.76 1.99 2.33 2.67 3.05 3.50 3.60 3.86 4.17 4.78 5.27 5.55 5.63 5.56 5.33 5.02 4.67 4.48 4.45 4.40 4.19 3.96 3.79 3.68 3.55 3.58 3.94 3.84 4.19 4.07 3.87 3.82 3.91 4.20 4.14 3.87 3.92
0.13 0.17 0.21 0.24 0.21 0.23 0.43 0.64 0.72 1.05 1.38 1.43 1.60 1.73 1.93 2.37 2.71 3.06 3.26 3.35 3.78 4.38 4.84 5.04 4.86 4.87 4.74 4.51 4.44 4.42 4.65 4.37 4.11 3.94 3.77 3.48 3.44 3.54 3.56 3.94 3.89 3.93 4.07 3.97 3.92 4.14 3.98 3.58 3.74
0.11 0.12 0.16 0.24 0.24 0.30 0.47 0.86 1.02 1.22 1.35 1.38 1.47 1.61 1.72 2.01 2.33 2.67 2.82 2.97 3.21 3.34 3.63 3.85 4.05 4.06 3.99 3.99 3.97 4.06 4.32 4.17 4.03 3.87 3.75 3.37 3.20 3.20 3.35 3.51 3.69 4.03 3.91 3.91 3.96 3.89 3.82 3.59 3.56
0.11 0.11 0.11 0.17 0.26 0.42 0.57 1.17 1.37 1.31 1.35 1.47 1.45 1.42 1.66 1.96 1.96 2.08 2.34 2.51 2.79 2.98 3.19 3.29 3.38 3.53 3.59 3.70 3.61 3.49 3.42 3.43 3.44 3.49 3.44 3.42 3.27 3.15 3.18 3.31 3.50 3.68 3.46 3.52 3.20 3.32 3.61 3.77 3.52
0.08 0.09 0.10 0.20 0.31 0.45 0.54 0.90 1.29 1.59 1.66 1.45 1.37 1.26 1.47 1.60 1.51 1.51 1.70 1.85 2.14 2.40 2.64 2.79 2.92 3.06 3.28 3.39 3.33 3.31 3.12 3.14 3.24 3.28 3.30 3.29 3.23 3.15 3.11 3.12 3.21 3.23 3.07 3.13 3.05 3.29 3.28 3.30 3.31
0.07 0.11 0.19 0.35 0.54 0.81 0.66 0.80 1.24 1.55 1.79 1.53 1.31 1.22 1.32 1.29 1.26 1.38 1.54 1.65 1.81 2.13 2.33 2.45 2.58 2.65 2.85 3.01 3.10 3.19 3.15 3.07 3.06 3.08 3.08 3.08 3.09 2.99 2.91 2.84 2.89 2.90 2.89 2.93 2.98 3.13 3.03 3.07 3.23
0.09 0.19 0.61 1.00 1.28 1.28 0.83 0.86 1.23 1.20 1.22 1.25 1.21 1.24 1.26 1.19 1.15 1.16 1.25 1.40 1.59 1.84 2.04 2.10 2.21 2.30 2.37 2.49 2.67 2.83 2.85 2.89 2.76 2.69 2.74 2.74 2.56 2.48 2.60 2.52 2.64 2.67 2.72 2.76 2.87 2.95 2.92 3.05 3.21
0.13 0.21 0.67 1.06 1.09 1.10 0.93 1.19 1.52 1.21 1.12 1.05 1.13 1.21 1.20 1.07 1.00 1.03 1.13 1.19 1.29 1.49 1.72 1.79 1.90 2.02 2.19 2.26 2.38 2.49 2.52 2.54 2.40 2.48 2.48 2.40 2.17 2.12 2.35 2.48 2.49 2.48 2.51 2.60 2.86 2.69 2.75 2.96 3.00
0.20 0.22 0.30 0.57 0.67 0.85 1.04 1.34 1.54 1.20 1.13 1.23 1.34 1.31 1.26 1.01 0.86 0.89 0.90 0.95 0.98 1.09 1.27 1.41 1.67 1.83 1.94 2.05 2.17 2.18 2.15 2.24 2.20 2.26 2.41 2.26 2.23 2.10 2.19 2.23 2.34 2.45 2.60 2.77 2.93 2.76 2.86 3.11 3.00
0.18 0.18 0.25 0.50 0.75 0.93 1.02 1.41 1.71 1.61 1.44 1.37 1.42 1.27 0.99 0.81 0.72 0.69 0.69 0.70 0.79 0.92 1.06 1.25 1.44 1.51 1.62 1.84 1.98 1.89 2.09 2.16 2.14 2.14 2.06 2.07 2.16 2.14 2.02 1.98 2.06 2.15 2.27 2.47 2.64 2.55 2.70 2.96 2.93
0.20 0.23 0.32 0.47 0.54 0.78 1.17 1.40 1.35 1.35 1.26 1.29 1.26 1.09 0.86 0.71 0.65 0.66 0.67 0.69 0.78 0.85 1.02 1.23 1.46 1.57 1.57 1.68 1.82 1.89 1.97 2.08 2.10 2.03 1.93 1.96 2.03 2.08 2.01 1.98 2.00 1.99 1.95 2.04 2.20 2.21 2.47 2.53 2.57
0.18 0.22 0.31 0.47 0.47 0.52 0.84 1.11 0.78 0.81 0.81 0.88 0.94 0.81 0.75 0.72 0.67 0.73 0.79 0.80 0.82 0.93 1.08 1.27 1.44 1.60 1.66 1.78 1.97 2.11 2.05 2.05 2.09 2.05 1.92 1.82 1.77 1.86 1.96 2.00 1.93 1.81 1.85 1.99 1.99 2.05 2.32 2.43 2.41